www.pogodaiklimat.ru

Погода и климат >> Архив погоды >> Малайзия >> Мири


ПОГОДА в Мири

  • Прогноз погоды в Мири
  • Монитор погоды в Мири

АРХИВ ПОГОДЫ в Мири

Время (UTC), дата Ветер
(напр.,м/с)
 
Видим.   Явления Облачность Т
(С)
Тd
(С)
f
(%)
Тe
(С)
Тes
(С)
Комфортность P
(гПа)
Po
(гПа)
Тmin
(С)
Tmax
(С)
R
(мм)
R24
(мм)
S
(см)
09 12.07 З 4 15 км осадки на расстоянии 9/5 450 м
[Cb cap Ac trans Ci fib]
+29.2 +24.7 77 +42 +42 опасность
перегрева
1009.6 1007.7
12 12.07 В 1 10 км слаб. дождь 9/5 450 м
[Cb cap Ac As]
+26.9 +25.2 90 +39 +39 очень
душно
1011.7 1009.8 +31.2 0.0
15 12.07 В 3 15 км 9/4 420 м
[Sc Ac trans Ci fib]
+24.3 +23.2 94 +33 +33 очень
душно
1013.2 1011.2
18 12.07 В 3 15 км 9/3 420 м
[Sc Ac trans Ci fib]
+23.6 +22.8 95 +31 +31 очень
душно
1011.7 1009.7 0.4
21 12.07 ЮВ 3 15 км 9/4 420 м
[Sc Ac trans Ci fib]
+23.4 +22.0 92 +32 +32 очень
душно
1011.5 1009.5
00 13.07 ЮВ 2 30 км 9/5 450 м
[Cb cap Ac lent Ci fib]
+25.2 +22.2 83 +33 +34 очень
душно
1012.1 1010.1 +23.3 0.4
03 13.07 З 3 30 км 9/5 450 м
[Cb cap Ac trans Ci fib]
+29.9 +23.0 67 +40 +45 очень
душно
1012.3 1010.3
06 13.07 З 5 15 км осадки на расстоянии 9/5 450 м
[Cb cap Ac lent Ci fib]
+29.6 +24.4 74 +42 +44 опасность
перегрева
1010.2 1008.3
09 13.07 Ю 3 25 км 9/5 450 м
[Cb cap Ac trans Ci fib]
+26.3 +23.0 82 +35 +36 очень
душно
1009.5 1007.5
12 13.07 ЮВ 1 15 км 9/3 480 м
[Sc Ac As]
+24.2 +22.3 89 +31 +31 очень
душно
1011.8 1009.8 +30.9
15 13.07 В 2 15 км 9/4 480 м
[Sc Ac As]
+23.5 +22.3 93 +31 +31 очень
душно
1012.5 1010.5
18 13.07 ЮВ 3 15 км 9/4 480 м
[Sc Ac As Ci fib]
+24.1 +21.8 87 +31 +31 очень
душно
1010.6 1008.6
21 13.07 ЮВ 2 15 км 9/4 480 м
[Sc Ac As Ci fib]
+23.6 +22.1 91 +30 +30 очень
душно
1010.0 1008.0
00 14.07 Ю 2 30 км 9/3 50 м
[Cu hum Ac trans Ci fib]
+25.8 +22.6 83 +34 +35 очень
душно
1011.4 1009.4 +23.2
03 14.07 Ю 4 30 км 9/3 480 м
[Cu hum Ac trans Ci fib]
+29.8 +23.5 69 +40 +46 очень
душно
1010.8 1008.9
06 14.07 З 4 18 км осадки на расстоянии 9/4 450 м
[Cb cap Ac trans Ci fib]
+30.6 +24.1 68 +42 +47 опасность
перегрева
1008.9 1007.0
09 14.07 З 3 18 км осадки на расстоянии 9/3 450 м
[Cb cap Ac As]
+29.4 +24.3 74 +41 +42 опасность
перегрева
1008.6 1006.7
12 14.07 СВ 1 15 км 9/3 480 м
[Sc Ac As]
+27.4 +24.3 83 +38 +38 очень
душно
1009.7 1007.8 +31.3
15 14.07 В 2 15 км 9/3 480 м
[Sc Ac trans Ci fib]
+24.8 +23.6 93 +34 +34 очень
душно
1010.5 1008.5
18 14.07 В 2 15 км 9/3 480 м
[Sc Ac trans Ci fib]
+24.1 +23.2 95 +32 +32 очень
душно
1009.3 1007.3
21 14.07 ЮВ 1 15 км 9/3 480 м
[Sc Ac As]
+24.0 +23.1 95 +32 +32 очень
душно
1008.1 1006.1
00 15.07 Ю 3 30 км 9/1 50 м
[Cu hum Ac trans Ci fib]
+26.9 +22.7 78 +36 +37 очень
душно
1009.5 1007.5 +23.6
03 15.07 ЮЗ 3 30 км 9/4 480 м
[Cu hum Ac trans Ci fib]
+30.3 +23.3 66 +41 +46 опасность
перегрева
1009.3 1007.4
06 15.07 З 5 15 км осадки на расстоянии 9/5 450 м
[Cb cap Ac As]
+28.7 +22.7 70 +38 +40 очень
душно
1008.5 1006.6
09 15.07 З 3 30 км 9/3 480 м
[Cu med, cong Ac trans Ci fib]
+30.0 +24.1 71 +42 +43 опасность
перегрева
1007.5 1005.6
12 15.07 В 2 15 км 9/3 480 м
[Sc Ac As Ci fib]
+25.7 +24.7 94 +36 +36 очень
душно
1009.1 1007.2 +31.1
15 15.07 ЮВ 1 15 км 9/3 480 м
[Sc Ac As]
+24.8 +24.0 95 +34 +34 очень
душно
1009.9 1008.0
18 15.07 ЮВ 1 15 км 9/3 480 м
[Sc Ac As]
+24.5 +23.0 91 +32 +32 очень
душно
1009.2 1007.2
21 15.07 ЮВ 2 15 км 9/3 480 м
[Sc Ac As]
+24.3 +23.4 95 +33 +33 очень
душно
1007.9 1006.0
00 16.07 ЮВ 2 30 км 9/3 50 м
[Cu hum Ac trans Ci fib]
+25.9 +24.1 90 +36 +37 очень
душно
1009.3 1007.4 +24.3
03 16.07 ЮЗ 5 30 км 9/1 480 м
[Cu hum Ac trans Ci fib]
+30.1 +23.4 67 +41 +46 опасность
перегрева
1008.9 1007.0
06 16.07 ЮЗ 3 18 км мгла 9/3 480 м
[Cu hum Ac lent Ci fib]
+31.8 +23.3 61 +43 +48 опасность
перегрева
1007.0 1005.1
09 16.07 ЮЗ 3 15 км мгла 9/1 480 м
[Cu hum Ac As Ci fib]
+30.6 +22.7 63 +40 +42 очень
душно
1006.6 1004.7
12 16.07 Ю 2 15 км 9/1 480 м
[Sc Ac trans Ci fib]
+25.9 +22.8 83 +34 +34 очень
душно
1007.5 1005.6 +32.5
15 16.07 Ю 1 15 км 9/1 480 м
[Sc Ac trans Ci fib]
+24.7 +23.6 94 +34 +34 очень
душно
1008.8 1006.9
18 16.07 штиль 0 15 км 9/3 480 м
[Sc Ac trans Ci fib]
+23.9 +23.4 97 +32 +32 очень
душно
1008.1 1006.1
21 16.07 СВ 2 15 км 9/1 480 м
[Sc Ac trans Ci fib]
+23.3 +22.8 97 +32 +32 очень
душно
1007.9 1005.9
00 17.07 ЮВ 1 12 км мгла 9/1 50 м
[Cu hum Ac trans Ci fib]
+26.9 +25.1 90 +39 +41 очень
душно
1008.4 1006.5 +23.1
03 17.07 ЮЗ 4 15 км мгла 9/4 480 м
[Cu hum Ac trans Ci fib]
+31.0 +24.1 67 +43 +47 опасность
перегрева
1008.4 1006.5
06 17.07 З 4 15 км мгла 9/3 480 м
[Cu hum Ac lent Ci fib]
+31.4 +24.3 66 +44 +49 опасность
перегрева
1006.9 1005.0
09 17.07 З 3 15 км мгла 9/3 480 м
[Cu hum Ac trans Ci fib]
+30.7 +24.2 68 +43 +43 опасность
перегрева
1006.2 1004.3
12 17.07 Ю 2 15 км 9/3 480 м
[Sc Ac As Ci fib]
+26.5 +24.3 88 +37 +37 очень
душно
1007.4 1005.5 +31.6
15 17.07 штиль 0 15 км 9/3 480 м
[Sc Ac As]
+25.4 +24.2 93 +35 +35 очень
душно
1008.6 1006.7
18 17.07 Ю 2 15 км 9/3 480 м
[Sc Ac As Ci fib]
+24.3 +23.8 97 +33 +33 очень
душно
1008.0 1006.1
21 17.07 СВ 2 15 км 9/3 480 м
[Sc Ac As Ci fib]
+24.3 +23.6 96 +33 +33 очень
душно
1007.6 1005.7
00 18.07 ЮВ 2 15 км мгла 9/1 480 м
[Cu hum Ac lent Ci fib]
+26.0 +24.2 90 +36 +38 очень
душно
1008.2 1006.3 +24.1
03 18.07 СЗ 2 15 км мгла 9/3 480 м
[Cu hum Ac trans Ci fib]
+30.5 +24.8 72 +44 +51 опасность
перегрева
1008.0 1006.1
06 18.07 З 3 18 км мгла 9/3 480 м
[Cu hum Ac trans Ci fib]
+31.6 +24.8 67 +45 +50 опасность
перегрева
1006.4 1004.5
09 18.07 СЗ 2 18 км мгла 6/1 480 м
[Cu hum Ac trans Ci fib]
+31.5 +23.8 64 +43 +45 опасность
перегрева
1006.1 1004.2
12 18.07 С 1 15 км 9/3 480 м
[Sc Ac lent Ci fib]
+27.9 +24.9 84 +40 +40 очень
душно
1008.0 1006.1 +32.0
15 18.07 В 1 15 км 9/3 480 м
[Sc Ac trans Ci fib]
+25.6 +24.4 93 +36 +36 очень
душно
1009.1 1007.2
18 18.07 В 1 15 км 9/3 480 м
[Sc Ac trans Ci fib]
+25.6 +24.6 94 +36 +36 очень
душно
1008.0 1006.1
21 18.07 В 1 15 км 9/3 480 м
[Sc Ac As]
+24.7 +24.2 97 +34 +34 очень
душно
1007.4 1005.5
00 19.07 ЮВ 3 10 км мгла 9/1 480 м
[Cu hum Ac As Ci fib]
+26.3 +24.9 92 +38 +39 очень
душно
1008.9 1007.0 +24.7
03 19.07 СВ 2 15 км мгла 9/3 480 м
[Cu hum Ac As Ci fib]
+30.9 +25.8 74 +46 +53 опасность
перегрева
1009.0 1007.1

 

Местоположение метеостанции Мири (Малайзия): широта 4.33 долгота 113.98 высота над уровнем моря 18 м.

В архиве по умолчанию представлена погода в Мири за последнюю неделю. Архивные данные за месяц целиком и за предыдущие месяцы, начиная с января 2011 года, Вы можете получить, выбрав интересующий диапазон дат из раскрывающегося списка и нажав кнопку "Ввод!".


*Определитесь, кто Вы:
робот инопланетянин человек

Внимание! Время в таблицах - всемирное. Для получения местного времени необходимо прибавить поправку, которая равна 8 ч.

Смотрите также архив погоды в соседних городах и на ближайших метеорологических станциях:

Погода в Бруней аэропорту (Бруней) (125 км)
Погода в Бинталу (Малайзия) (164 км)
Погода в Лабуане (Малайзия) (177 км)
Погода в Лонгбаване (Индонезия) (200 км)
Погода в Кота-Кинабалу (Малайзия) (290 км)
Погода в Сибу (Малайзия) (326 км)
Погода на Путусиббау (Индонезия) (405 км)
Погода в Танджунгселоре (Индонезия) (407 км)
Погода в Таракане (Индонезия) (413 км)
Погода в Тавау (Малайзия) (433 км)

Пояснения к столбцам:

Ветер - указаны скорость ветра в м/с - средняя за 10 мин, порывы в срок и между сроками (в фигурных скобках) и направление, откуда дует ветер: С - северный, СВ - северо-восточный, В - восточный, ЮВ - юго-восточный, Ю - южный, ЮЗ - юго-западный, З - западный, СЗ - северо-западный.
Видимость - горизонтальная дальность видимости в метрах или километрах. При видимости от 1 до 10 км при отсутствии осадков обычно наблюдается дымка, при ухудшении видимости до 1 км и менее - туман. В сухую погоду видимость может ухудшаться дымом, пылью или мглою.
Явления - указаны атмосферные явления, наблюдавшиеся в срок или в последний час перед сроком; фигурными скобками обозначены явления, наблюдавшиеся между сроками (за 1-3 часа до срока); квадратными скобками обозначены град или гололедные отложения с указанием их диаметра в мм.
Облачность - указаны через наклонную черту общая и нижняя облачность в баллах и высота нижней границы облаков в метрах; квадратными скобками обозначены формы облаков: Ci - перистые, Cs - перисто-слоистые, Cc - перисто-кучевые, Ac - высококучевые, As - высокослоистые, Sc - слоисто-кучевые, Ns - слоисто-дождевые, Cu - кучевые, Cb - кучево-дождевые. Подробнее классификацию облаков см. в Атласе облаков (PDF).
T - Температура воздуха - температура, измеренная на высоте 2 м над землей.
Td - Температура точки росы - температура, при понижении до которой содержащийся в воздухе водяной пар достигнет насыщения.
f - Относительная влажность воздуха - влажноcть воздуха, измеренная на высоте 2 м над землей.
Te - Эффективная температура - температура, которую ощущает одетый по сезону человек в тени. Характеристика душности погоды. При расчете учитывается влияние влажности воздуха и скорости ветра на теплоощущения человека.
Tes - Эффективная температура на солнце - температура, которую ощущает человек, с поправкой на солнечный нагрев. Характеристика знойности погоды. Зависит от высоты солнца над горизонтом, облачности и скорости ветра. Ночью, в пасмурную погоду, а также при ветре 12 м/с и более поправка равна нулю.
P - Атмосферное давление - приведенное к уровню моря атмосферное давление.
Po - Атмосферное давление - измеренное на уровне метеостанции атмосферное давление.
Tmin - Минимальная температура - минимум температуры воздуха на высоте 2 м над землей.
Tmax - Максимальная температура - максимум температуры воздуха на высоте 2 м над землей.
R - Количество осадков - Количество выпавших осадков за период времени, мм. При наведении курсора мыши на число - период времени, за который выпало указанное количество осадков.
R24 - Количество осадков - Количество выпавших осадков за 24 часа, мм.
S - Снежный покров - Высота снежного покрова, см. При наведении курсора мыши на число - состояние снежного покрова и степень покрытия местности в баллах.